Skip Page Navigation
NASA JPL Caltech
NASA Logo - Jet Propulsion Laboratory + View the NASA Portal
+ Center for Near-Earth Object Studies
JPL Home Earth Solar System Stars & Galaxies Technology
JPL Solar System Dynamics
BODIES ORBITS EPHEMERIDES TOOLS PHYSICAL DATA DISCOVERY FAQ SITE MAP
JPL Small-Body Database Browser
Search: [ help ]  
277907 (2006 KY72)
Classification: Main-belt Asteroid          SPK-ID: 2277907
Ephemeris | Orbit Diagram | Orbital Elements | Mission Design | Physical Parameters | Discovery Circumstances | Close-Approach Data ]

[ show orbit diagram ]
Orbital Elements at Epoch 2459000.5 (2020-May-31.0) TDB
Reference: JPL 10 (heliocentric ecliptic J2000)
 Element Value Uncertainty (1-sigma)   Units 
e .1766346102676226 6.1628e-08  
a 3.052891415204443 3.7787e-08 au
q 2.513645129890435 1.8334e-07 au
i 12.26696988989198 6.4137e-06 deg
node 104.909079216435 3.3347e-05 deg
peri 164.5314102346728 3.9499e-05 deg
M 208.0078009263812 2.148e-05 deg
tp 2459823.091582571812
(2022-Aug-31.59158257)
0.00012307 TDB
period 1948.343214525224
5.33
3.6173e-05
9.904e-08
d
yr
n .1847723734279155 3.4305e-09 deg/d
Q 3.59213770051845 4.4461e-08 au
  Orbit Determination Parameters
   # obs. used (total)      120  
   data-arc span      9055 days (24.79 yr)  
   first obs. used      1994-01-19  
   last obs. used      2018-11-04  
   planetary ephem.      DE431  
   SB-pert. ephem.      SB431-N16  
   condition code      0  
   norm. resid. RMS      .58222  
   source      ORB  
   producer      Otto Matic  
   solution date      2019-Jul-14 07:21:47  

Additional Information
 Earth MOID = 1.49968 au 
 Jupiter MOID = 1.5553 au 
 T_jup = 3.178 
[ show covariance matrix ]

Ephemeris | Orbit Diagram | Orbital Elements | Mission Design | Physical Parameters | Discovery Circumstances | Close-Approach Data ]

Physical Parameter Table
Parameter Symbol Value Units Sigma Reference Notes
absolute magnitude H 16.0   n/a MPO418478  

277907 (2006 KY72)          Discovered 2006-May-23 by Spacewatch at Kitt Peak
Reference: 20110517/Numbers.arcLast Updated: 2011-05-20

[ show close-approach data ]
Ephemeris | Orbit Diagram | Orbital Elements | Mission Design | Physical Parameters | Discovery Circumstances | Close-Approach Data ]
ABOUT SSD CREDITS/AWARDS PRIVACY/COPYRIGHT GLOSSARY LINKS
FirstGov 2020-Jul-16 17:10 UT
(server date/time)  
NASA Home Page
Site Manager:   Ryan S. Park
Webmaster  Alan B. Chamberlin